| time (UTC) | temp F | wind direction | speed MPH | gust MPH | rain 1hr in | rain 24hr in | rain mn in | humidity % | barometer mb |
| 20260901225033 | 81 | 0 | 0.0 | 0.0 | 0.00 | 0.00 | 0.00 | 75 | 1020.9 |
| 20260901224556 | 81 | 0 | 0.0 | 0.0 | 0.00 | 0.00 | 0.00 | 75 | 1020.9 |
| 20260901224036 | 81 | 0 | 0.0 | 0.0 | 0.00 | 0.00 | 0.00 | 74 | 1020.9 |
| 20260901223533 | 82 | 0 | 0.0 | 0.0 | 0.00 | 0.00 | 0.00 | 72 | 1020.7 |
| 20260901223109 | 82 | 0 | 0.0 | 0.0 | 0.00 | 0.00 | 0.00 | 72 | 1020.8 |
| 20260901222533 | 82 | 0 | 0.0 | 0.0 | 0.00 | 0.00 | 0.00 | 71 | 1020.6 |
| 20260901222032 | 83 | 0 | 0.0 | 2.0 | 0.00 | 0.00 | 0.00 | 72 | 1020.6 |
| 20260901221600 | 83 | 0 | 0.0 | 2.0 | 0.00 | 0.00 | 0.00 | 71 | 1020.7 |
| 20260901221033 | 84 | 0 | 0.0 | 2.0 | 0.00 | 0.00 | 0.00 | 70 | 1020.6 |
| 20260901220533 | 84 | 298 | 0.0 | 2.0 | 0.00 | 0.00 | 0.00 | 71 | 1020.7 |
| 20260901220056 | 84 | 0 | 0.0 | 2.0 | 0.00 | 0.00 | 0.00 | 70 | 1020.6 |
| 20260901215535 | 85 | 298 | 1.0 | 2.0 | 0.00 | 0.00 | 0.00 | 70 | 1020.6 |
| 20260901215033 | 85 | 0 | 0.0 | 2.0 | 0.00 | 0.00 | 0.00 | 68 | 1020.6 |
| 20260901214600 | 85 | 298 | 1.0 | 2.0 | 0.00 | 0.00 | 0.00 | 67 | 1020.8 |
| 20260901214035 | 85 | 0 | 0.0 | 2.0 | 0.00 | 0.00 | 0.00 | 68 | 1020.7 |
| 20260901213533 | 85 | 0 | 0.0 | 2.0 | 0.00 | 0.00 | 0.00 | 65 | 1020.6 |
| 20260901213053 | 86 | 294 | 0.0 | 2.0 | 0.00 | 0.00 | 0.00 | 65 | 1020.7 |
| 20260901212533 | 86 | 0 | 0.0 | 1.0 | 0.00 | 0.00 | 0.00 | 68 | 1020.7 |
| 20260901212035 | 86 | 0 | 0.0 | 2.0 | 0.00 | 0.00 | 0.00 | 68 | 1020.7 |
| 20260901211558 | 87 | 0 | 0.0 | 2.0 | 0.00 | 0.00 | 0.00 | 65 | 1020.7 |
| 20260901211032 | 87 | 0 | 0.0 | 2.0 | 0.00 | 0.00 | 0.00 | 66 | 1020.7 |
| 20260901210532 | 87 | 0 | 0.0 | 2.0 | 0.00 | 0.00 | 0.00 | 66 | 1020.8 |
| 20260901210110 | 87 | 0 | 0.0 | 3.0 | 0.00 | 0.00 | 0.00 | 65 | 1020.9 |
| 20260901205533 | 87 | 0 | 0.0 | 4.0 | 0.00 | 0.00 | 0.00 | 62 | 1020.8 |
| 20260901205033 | 87 | 211 | 0.0 | 4.0 | 0.00 | 0.00 | 0.00 | 62 | 1020.9 |
| 20260901204552 | 87 | 200 | 0.0 | 2.0 | 0.00 | 0.00 | 0.00 | 63 | 1020.9 |
| 20260901204033 | 87 | 219 | 0.0 | 1.0 | 0.00 | 0.00 | 0.00 | 62 | 1020.9 |
| 20260901203533 | 87 | 0 | 0.0 | 1.0 | 0.00 | 0.00 | 0.00 | 66 | 1021.0 |
| 20260901203109 | 87 | 0 | 0.0 | 3.0 | 0.00 | 0.00 | 0.00 | 63 | 1021.0 |
| 20260901202532 | 87 | 0 | 0.0 | 3.0 | 0.00 | 0.00 | 0.00 | 64 | 1021.0 |
| 20260901202033 | 87 | 221 | 0.0 | 2.0 | 0.00 | 0.00 | 0.00 | 63 | 1021.1 |
| 20260901201554 | 87 | 222 | 0.0 | 4.0 | 0.00 | 0.00 | 0.00 | 61 | 1020.9 |
| 20260901201033 | 88 | 0 | 0.0 | 4.0 | 0.00 | 0.00 | 0.00 | 62 | 1021.1 |
| 20260901200532 | 88 | 219 | 0.0 | 0.0 | 0.00 | 0.00 | 0.00 | 62 | 1021.1 |
| 20260901200100 | 88 | 0 | 0.0 | 0.0 | 0.00 | 0.00 | 0.00 | 60 | 1021.1 |
| 20260901195538 | 87 | 0 | 0.0 | 0.0 | 0.00 | 0.00 | 0.00 | 60 | 1021.2 |
| 20260901195032 | 87 | 0 | 0.0 | 0.0 | 0.00 | 0.00 | 0.00 | 63 | 1021.1 |
| 20260901194602 | 87 | 0 | 0.0 | 2.0 | 0.00 | 0.00 | 0.00 | 61 | 1021.3 |
| 20260901194033 | 87 | 0 | 0.0 | 2.0 | 0.00 | 0.00 | 0.00 | 62 | 1021.4 |
| 20260901193533 | 87 | 10 | 0.0 | 3.0 | 0.00 | 0.00 | 0.00 | 65 | 1021.5 |
| 20260901193059 | 87 | 0 | 0.0 | 3.0 | 0.00 | 0.00 | 0.00 | 62 | 1021.6 |
| 20260901192537 | 87 | 0 | 0.0 | 3.0 | 0.00 | 0.00 | 0.00 | 61 | 1021.6 |
| 20260901192033 | 87 | 253 | 1.0 | 3.0 | 0.00 | 0.00 | 0.00 | 62 | 1021.6 |
| 20260901191600 | 87 | 0 | 0.0 | 2.0 | 0.00 | 0.00 | 0.00 | 59 | 1021.8 |
| 20260901191036 | 87 | 227 | 0.0 | 3.0 | 0.00 | 0.00 | 0.00 | 61 | 1021.7 |
| 20260901190533 | 87 | 0 | 0.0 | 3.0 | 0.00 | 0.00 | 0.00 | 62 | 1021.7 |
| 20260901190111 | 87 | 196 | 1.0 | 3.0 | 0.00 | 0.00 | 0.00 | 61 | 1021.7 |
| 20260901185539 | 87 | 0 | 0.0 | 5.0 | 0.00 | 0.21 | 0.00 | 63 | 1021.9 |
| 20260901185038 | 86 | 59 | 1.0 | 5.0 | 0.00 | 0.21 | 0.00 | 63 | 1021.9 |
| 20260901184553 | 87 | 207 | 1.0 | 5.0 | 0.00 | 0.21 | 0.00 | 62 | 1021.9 |
| 20260901184035 | 86 | 0 | 1.0 | 6.0 | 0.00 | 0.21 | 0.00 | 62 | 1022.0 |
| 20260901183532 | 86 | 0 | 1.0 | 6.0 | 0.00 | 0.21 | 0.00 | 64 | 1022.0 |
| 20260901183051 | 87 | 210 | 1.0 | 6.0 | 0.00 | 0.21 | 0.00 | 62 | 1022.1 |
| 20260901182534 | 86 | 0 | 0.0 | 4.0 | 0.00 | 0.21 | 0.00 | 65 | 1022.2 |
| 20260901182034 | 86 | 210 | 1.0 | 4.0 | 0.00 | 0.21 | 0.00 | 66 | 1022.1 |
| 20260901181557 | 86 | 211 | 1.0 | 4.0 | 0.00 | 0.21 | 0.00 | 66 | 1022.2 |
| 20260901181034 | 85 | 203 | 1.0 | 4.0 | 0.00 | 0.21 | 0.00 | 65 | 1022.2 |
| 20260901180535 | 86 | 217 | 1.0 | 5.0 | 0.00 | 0.21 | 0.00 | 63 | 1022.3 |
| 20260901180057 | 86 | 245 | 0.0 | 5.0 | 0.00 | 0.21 | 0.00 | 65 | 1022.2 |
| 20260901175535 | 85 | 211 | 2.0 | 5.0 | 0.00 | 0.21 | 0.00 | 63 | 1022.2 |
| 20260901175033 | 86 | 265 | 0.0 | 3.0 | 0.00 | 0.21 | 0.00 | 68 | 1022.3 |
| 20260901174614 | 85 | 0 | 1.0 | 3.0 | 0.00 | 0.21 | 0.00 | 67 | 1022.4 |
| 20260901174033 | 85 | 208 | 0.0 | 5.0 | 0.00 | 0.21 | 0.00 | 68 | 1022.4 |
| 20260901173533 | 85 | 208 | 0.0 | 5.0 | 0.00 | 0.21 | 0.00 | 68 | 1022.4 |
| 20260901173056 | 84 | 211 | 2.0 | 5.0 | 0.00 | 0.21 | 0.00 | 68 | 1022.5 |
| 20260901172533 | 84 | 207 | 1.0 | 4.0 | 0.00 | 0.21 | 0.00 | 71 | 1022.6 |
| 20260901172033 | 84 | 227 | 0.0 | 6.0 | 0.00 | 0.21 | 0.00 | 70 | 1022.6 |
| 20260901171559 | 84 | 0 | 2.0 | 6.0 | 0.00 | 0.21 | 0.00 | 69 | 1022.8 |
| 20260901171032 | 84 | 225 | 0.0 | 4.0 | 0.00 | 0.21 | 0.00 | 72 | 1022.7 |
| 20260901170533 | 84 | 0 | 1.0 | 4.0 | 0.00 | 0.21 | 0.00 | 70 | 1022.8 |
| 20260901170101 | 84 | 173 | 0.0 | 2.0 | 0.00 | 0.21 | 0.00 | 72 | 1022.9 |
| 20260901165533 | 84 | 0 | 0.0 | 5.0 | 0.00 | 0.21 | 0.00 | 70 | 1023.0 |
| 20260901165036 | 83 | 0 | 0.0 | 5.0 | 0.00 | 0.21 | 0.00 | 74 | 1023.1 |
| 20260901164554 | 83 | 215 | 1.0 | 5.0 | 0.00 | 0.21 | 0.00 | 71 | 1023.2 |
| 20260901164035 | 82 | 244 | 0.0 | 4.0 | 0.00 | 0.21 | 0.00 | 72 | 1023.1 |
| 20260901163533 | 82 | 195 | 1.0 | 3.0 | 0.00 | 0.21 | 0.00 | 73 | 1023.3 |
| 20260901163057 | 82 | 216 | 0.0 | 5.0 | 0.00 | 0.21 | 0.00 | 74 | 1023.2 |
| 20260901162532 | 82 | 207 | 2.0 | 5.0 | 0.00 | 0.21 | 0.00 | 73 | 1023.3 |
| 20260901162032 | 82 | 217 | 0.0 | 3.0 | 0.00 | 0.21 | 0.00 | 75 | 1023.5 |
| 20260901161609 | 81 | 0 | 0.0 | 6.0 | 0.00 | 0.21 | 0.00 | 75 | 1023.6 |
| 20260901161033 | 81 | 0 | 0.0 | 6.0 | 0.00 | 0.21 | 0.00 | 76 | 1023.6 |
| 20260901160535 | 81 | 211 | 1.0 | 6.0 | 0.00 | 0.21 | 0.00 | 76 | 1023.7 |
| 20260901160057 | 81 | 209 | 0.0 | 5.0 | 0.00 | 0.21 | 0.00 | 77 | 1023.6 |
| 20260901155533 | 81 | 204 | 1.0 | 5.0 | 0.00 | 0.21 | 0.00 | 75 | 1023.8 |
| 20260901155035 | 80 | 0 | 1.0 | 4.0 | 0.00 | 0.21 | 0.00 | 76 | 1023.6 |
| 20260901154553 | 80 | 206 | 0.0 | 3.0 | 0.00 | 0.21 | 0.00 | 76 | 1023.7 |
| 20260901154033 | 80 | 215 | 1.0 | 3.0 | 0.00 | 0.21 | 0.00 | 79 | 1023.9 |
| 20260901153533 | 80 | 222 | 1.0 | 3.0 | 0.00 | 0.21 | 0.00 | 76 | 1023.7 |
| 20260901153059 | 79 | 198 | 0.0 | 3.0 | 0.00 | 0.21 | 0.00 | 76 | 1023.9 |
| 20260901152532 | 79 | 204 | 1.0 | 2.0 | 0.00 | 0.21 | 0.00 | 75 | 1023.9 |
| 20260901152033 | 79 | 207 | 0.0 | 2.0 | 0.00 | 0.21 | 0.00 | 77 | 1023.9 |
| 20260901151559 | 79 | 0 | 0.0 | 3.0 | 0.00 | 0.21 | 0.00 | 78 | 1024.0 |
| 20260901151038 | 78 | 0 | 0.0 | 3.0 | 0.00 | 0.21 | 0.00 | 77 | 1024.0 |
| 20260901150535 | 78 | 213 | 0.0 | 2.0 | 0.00 | 0.21 | 0.00 | 79 | 1023.9 |
| 20260901150107 | 78 | 0 | 0.0 | 2.0 | 0.00 | 0.21 | 0.00 | 81 | 1023.9 |
| 20260901145533 | 77 | 0 | 0.0 | 2.0 | 0.00 | 0.21 | 0.00 | 81 | 1023.8 |
| 20260901145033 | 77 | 0 | 0.0 | 2.0 | 0.00 | 0.21 | 0.00 | 80 | 1023.7 |
| 20260901144600 | 76 | 0 | 0.0 | 3.0 | 0.00 | 0.21 | 0.00 | 80 | 1023.8 |
| 20260901144035 | 76 | 0 | 0.0 | 3.0 | 0.00 | 0.21 | 0.00 | 82 | 1023.9 |
| 20260901143535 | 76 | 0 | 0.0 | 1.0 | 0.00 | 0.21 | 0.00 | 84 | 1023.9 |
| 20260901143123 | 75 | 0 | 0.0 | 1.0 | 0.00 | 0.21 | 0.00 | 83 | 1024.0 |
| 20260901142533 | 74 | 0 | 0.0 | 1.0 | 0.00 | 0.21 | 0.00 | 87 | 1023.9 |
| 20260901142033 | 73 | 0 | 0.0 | 1.0 | 0.00 | 0.21 | 0.00 | 90 | 1024.0 |
| 20260901141606 | 72 | 0 | 0.0 | 1.0 | 0.00 | 0.21 | 0.00 | 93 | 1024.0 |
| 20260901141034 | 72 | 0 | 0.0 | 0.0 | 0.00 | 0.21 | 0.00 | 96 | 1024.0 |
| 20260901140533 | 71 | 0 | 0.0 | 1.0 | 0.00 | 0.21 | 0.00 | 96 | 1023.9 |
| 20260901140104 | 70 | 0 | 0.0 | 1.0 | 0.00 | 0.21 | 0.00 | 97 | 1023.9 |
| 20260901135535 | 70 | 0 | 0.0 | 1.0 | 0.00 | 0.21 | 0.00 | 97 | 1024.0 |
| 20260901135035 | 69 | 0 | 0.0 | 1.0 | 0.00 | 0.21 | 0.00 | 97 | 1023.9 |
| 20260901134556 | 69 | 0 | 0.0 | 1.0 | 0.00 | 0.21 | 0.00 | 97 | 1023.8 |
| 20260901134037 | 69 | 0 | 0.0 | 1.0 | 0.00 | 0.21 | 0.00 | 97 | 1023.8 |
| 20260901133534 | 68 | 0 | 0.0 | 1.0 | 0.00 | 0.21 | 0.00 | 97 | 1023.7 |
| 20260901133109 | 68 | 0 | 0.0 | 1.0 | 0.00 | 0.21 | 0.00 | 97 | 1023.6 |
| 20260901132534 | 68 | 0 | 0.0 | 1.0 | 0.00 | 0.21 | 0.00 | 97 | 1023.7 |
| 20260901132034 | 68 | 0 | 0.0 | 0.0 | 0.00 | 0.21 | 0.00 | 97 | 1023.6 |
| 20260901131603 | 68 | 0 | 0.0 | 0.0 | 0.00 | 0.21 | 0.00 | 97 | 1023.5 |
| 20260901131034 | 68 | 0 | 0.0 | 0.0 | 0.00 | 0.21 | 0.00 | 97 | 1023.6 |
| 20260901130535 | 67 | 0 | 0.0 | 0.0 | 0.00 | 0.21 | 0.00 | 97 | 1023.7 |
| 20260901130056 | 67 | 0 | 0.0 | 0.0 | 0.00 | 0.21 | 0.00 | 97 | 1023.7 |
| 20260901125534 | 67 | 0 | 0.0 | 0.0 | 0.00 | 0.21 | 0.00 | 97 | 1023.6 |
| 20260901125038 | 67 | 0 | 0.0 | 0.0 | 0.00 | 0.21 | 0.00 | 97 | 1023.7 |
| 20260901124559 | 66 | 0 | 0.0 | 0.0 | 0.00 | 0.21 | 0.00 | 97 | 1023.5 |
| 20260901124037 | 66 | 0 | 0.0 | 0.0 | 0.00 | 0.21 | 0.00 | 97 | 1023.6 |
| 20260901123533 | 66 | 0 | 0.0 | 0.0 | 0.00 | 0.21 | 0.00 | 97 | 1023.5 |
| 20260901123056 | 66 | 0 | 0.0 | 0.0 | 0.00 | 0.21 | 0.00 | 97 | 1023.4 |
| 20260901122535 | 66 | 0 | 0.0 | 0.0 | 0.00 | 0.21 | 0.00 | 97 | 1023.3 |
| 20260901122034 | 65 | 0 | 0.0 | 0.0 | 0.00 | 0.21 | 0.00 | 97 | 1023.2 |
| 20260901121558 | 65 | 0 | 0.0 | 0.0 | 0.00 | 0.21 | 0.00 | 97 | 1023.3 |
| 20260901121034 | 65 | 0 | 0.0 | 0.0 | 0.00 | 0.21 | 0.00 | 97 | 1023.3 |
| 20260901120534 | 65 | 0 | 0.0 | 0.0 | 0.00 | 0.21 | 0.00 | 97 | 1023.3 |
| 20260901120113 | 65 | 0 | 0.0 | 0.0 | 0.00 | 0.21 | 0.00 | 96 | 1023.3 |
| 20260901115535 | 64 | 0 | 0.0 | 0.0 | 0.00 | 0.21 | 0.00 | 96 | 1023.1 |
| 20260901115038 | 64 | 0 | 0.0 | 0.0 | 0.00 | 0.21 | 0.00 | 96 | 1023.0 |
| 20260901114600 | 64 | 0 | 0.0 | 0.0 | 0.00 | 0.21 | 0.00 | 96 | 1022.9 |
| 20260901114033 | 64 | 0 | 0.0 | 0.0 | 0.00 | 0.21 | 0.00 | 96 | 1022.9 |
| 20260901113535 | 64 | 0 | 0.0 | 0.0 | 0.00 | 0.21 | 0.00 | 96 | 1023.0 |
| 20260901113100 | 64 | 0 | 0.0 | 0.0 | 0.00 | 0.21 | 0.00 | 96 | 1022.8 |
| 20260901112534 | 64 | 0 | 0.0 | 0.0 | 0.00 | 0.21 | 0.00 | 96 | 1022.8 |
| 20260901112035 | 64 | 0 | 0.0 | 0.0 | 0.00 | 0.21 | 0.00 | 96 | 1022.7 |
| 20260901111556 | 64 | 0 | 0.0 | 0.0 | 0.00 | 0.21 | 0.00 | 96 | 1022.8 |
| 20260901111035 | 64 | 0 | 0.0 | 0.0 | 0.00 | 0.21 | 0.00 | 96 | 1022.6 |
| 20260901110533 | 64 | 0 | 0.0 | 0.0 | 0.00 | 0.21 | 0.00 | 96 | 1022.6 |
| 20260901110058 | 65 | 0 | 0.0 | 0.0 | 0.00 | 0.21 | 0.00 | 96 | 1022.5 |
| 20260901105535 | 65 | 0 | 0.0 | 0.0 | 0.00 | 0.21 | 0.00 | 96 | 1022.2 |
| 20260901105034 | 65 | 0 | 0.0 | 0.0 | 0.00 | 0.21 | 0.00 | 96 | 1022.3 |
| 20260901104605 | 65 | 0 | 0.0 | 0.0 | 0.00 | 0.21 | 0.00 | 96 | 1022.4 |
| 20260901104034 | 65 | 0 | 0.0 | 0.0 | 0.00 | 0.21 | 0.00 | 96 | 1022.3 |
| 20260901103535 | 65 | 0 | 0.0 | 0.0 | 0.00 | 0.21 | 0.00 | 96 | 1022.4 |
| 20260901103059 | 65 | 0 | 0.0 | 0.0 | 0.00 | 0.21 | 0.00 | 96 | 1022.3 |
| 20260901102534 | 65 | 0 | 0.0 | 0.0 | 0.00 | 0.21 | 0.00 | 96 | 1022.5 |
| 20260901102034 | 65 | 0 | 0.0 | 0.0 | 0.00 | 0.21 | 0.00 | 96 | 1022.3 |
| 20260901101556 | 65 | 0 | 0.0 | 0.0 | 0.00 | 0.21 | 0.00 | 96 | 1022.3 |
| 20260901101034 | 65 | 0 | 0.0 | 0.0 | 0.00 | 0.21 | 0.00 | 96 | 1022.2 |
| 20260901100534 | 65 | 0 | 0.0 | 0.0 | 0.00 | 0.21 | 0.00 | 96 | 1022.4 |
| 20260901100057 | 65 | 0 | 0.0 | 0.0 | 0.00 | 0.21 | 0.00 | 96 | 1022.2 |
| 20260901095533 | 65 | 0 | 0.0 | 0.0 | 0.00 | 0.21 | 0.00 | 96 | 1022.2 |
| 20260901095035 | 65 | 0 | 0.0 | 0.0 | 0.00 | 0.21 | 0.00 | 96 | 1022.2 |
| 20260901094559 | 65 | 0 | 0.0 | 0.0 | 0.00 | 0.21 | 0.00 | 96 | 1022.1 |
| 20260901094033 | 65 | 0 | 0.0 | 0.0 | 0.00 | 0.21 | 0.00 | 96 | 1022.3 |
| 20260901093534 | 65 | 0 | 0.0 | 0.0 | 0.00 | 0.21 | 0.00 | 96 | 1022.2 |
| 20260901093059 | 65 | 0 | 0.0 | 0.0 | 0.00 | 0.21 | 0.00 | 96 | 1022.1 |
| 20260901092534 | 65 | 0 | 0.0 | 0.0 | 0.00 | 0.21 | 0.00 | 96 | 1022.2 |
| 20260901092035 | 65 | 0 | 0.0 | 0.0 | 0.00 | 0.21 | 0.00 | 96 | 1022.1 |
| 20260901091604 | 65 | 0 | 0.0 | 0.0 | 0.00 | 0.21 | 0.00 | 96 | 1022.1 |
| 20260901091033 | 65 | 0 | 0.0 | 0.0 | 0.00 | 0.21 | 0.00 | 96 | 1022.1 |
| 20260901090533 | 65 | 0 | 0.0 | 0.0 | 0.00 | 0.21 | 0.00 | 96 | 1022.1 |
| 20260901090056 | 65 | 0 | 0.0 | 0.0 | 0.00 | 0.21 | 0.00 | 96 | 1022.1 |
| 20260901085534 | 65 | 0 | 0.0 | 0.0 | 0.00 | 0.21 | 0.00 | 96 | 1022.1 |
| 20260901085035 | 65 | 0 | 0.0 | 0.0 | 0.00 | 0.21 | 0.00 | 96 | 1022.1 |
| 20260901084553 | 65 | 0 | 0.0 | 0.0 | 0.00 | 0.21 | 0.00 | 96 | 1022.2 |
| 20260901084033 | 65 | 0 | 0.0 | 0.0 | 0.00 | 0.21 | 0.00 | 96 | 1022.1 |
| 20260901083535 | 65 | 0 | 0.0 | 0.0 | 0.00 | 0.21 | 0.00 | 96 | 1022.1 |
| 20260901083056 | 65 | 0 | 0.0 | 0.0 | 0.00 | 0.21 | 0.00 | 96 | 1022.1 |
| 20260901082535 | 65 | 0 | 0.0 | 0.0 | 0.00 | 0.21 | 0.00 | 96 | 1022.2 |
| 20260901082034 | 65 | 0 | 0.0 | 0.0 | 0.00 | 0.21 | 0.00 | 96 | 1022.1 |
| 20260901081600 | 65 | 0 | 0.0 | 0.0 | 0.00 | 0.21 | 0.00 | 96 | 1022.2 |
| 20260901081035 | 65 | 0 | 0.0 | 0.0 | 0.00 | 0.21 | 0.00 | 96 | 1022.2 |
| 20260901080538 | 65 | 0 | 0.0 | 0.0 | 0.00 | 0.21 | 0.00 | 96 | 1022.1 |
| 20260901080057 | 65 | 0 | 0.0 | 0.0 | 0.00 | 0.21 | 0.00 | 96 | 1022.2 |
| 20260901075534 | 65 | 0 | 0.0 | 0.0 | 0.00 | 0.21 | 0.00 | 96 | 1022.2 |
| 20260901075034 | 65 | 0 | 0.0 | 0.0 | 0.00 | 0.21 | 0.00 | 96 | 1022.3 |
| 20260901074556 | 66 | 0 | 0.0 | 0.0 | 0.00 | 0.21 | 0.00 | 96 | 1022.2 |
| 20260901074036 | 66 | 0 | 0.0 | 0.0 | 0.00 | 0.21 | 0.00 | 96 | 1022.3 |
| 20260901073534 | 66 | 0 | 0.0 | 0.0 | 0.00 | 0.21 | 0.00 | 96 | 1022.3 |
| 20260901073056 | 66 | 0 | 0.0 | 0.0 | 0.00 | 0.21 | 0.00 | 96 | 1022.3 |
| 20260901072534 | 66 | 0 | 0.0 | 0.0 | 0.00 | 0.21 | 0.00 | 96 | 1022.2 |
| 20260901072034 | 66 | 0 | 0.0 | 0.0 | 0.00 | 0.21 | 0.00 | 96 | 1022.2 |
| 20260901071617 | 66 | 0 | 0.0 | 0.0 | 0.00 | 0.21 | 0.00 | 96 | 1022.3 |
| 20260901071035 | 66 | 0 | 0.0 | 0.0 | 0.00 | 0.21 | 0.00 | 96 | 1022.4 |
| 20260901070533 | 66 | 0 | 0.0 | 0.0 | 0.00 | 0.21 | 0.00 | 96 | 1022.3 |
| 20260901070103 | 66 | 0 | 0.0 | 0.0 | 0.00 | 0.21 | 0.00 | 96 | 1022.2 |
| 20260901065533 | 66 | 0 | 0.0 | 0.0 | 0.00 | 0.21 | 0.00 | 96 | 1022.3 |
| 20260901065033 | 66 | 0 | 0.0 | 0.0 | 0.00 | 0.21 | 0.00 | 96 | 1022.4 |
| 20260901064553 | 66 | 0 | 0.0 | 0.0 | 0.00 | 0.21 | 0.00 | 96 | 1022.5 |
| 20260901064034 | 66 | 0 | 0.0 | 0.0 | 0.00 | 0.21 | 0.00 | 96 | 1022.4 |
| 20260901063533 | 66 | 0 | 0.0 | 0.0 | 0.00 | 0.21 | 0.00 | 96 | 1022.5 |
| 20260901063101 | 66 | 0 | 0.0 | 0.0 | 0.00 | 0.21 | 0.00 | 96 | 1022.4 |
| 20260901062533 | 66 | 0 | 0.0 | 0.0 | 0.00 | 0.21 | 0.00 | 96 | 1022.5 |
| 20260901062033 | 66 | 0 | 0.0 | 0.0 | 0.00 | 0.21 | 0.00 | 96 | 1022.7 |
| 20260901061603 | 66 | 0 | 0.0 | 0.0 | 0.00 | 0.21 | 0.00 | 96 | 1022.7 |
| 20260901061034 | 66 | 0 | 0.0 | 0.0 | 0.00 | 0.21 | 0.00 | 96 | 1022.7 |
| 20260901060534 | 66 | 0 | 0.0 | 0.0 | 0.00 | 0.21 | 0.00 | 96 | 1022.7 |
| 20260901060054 | 66 | 0 | 0.0 | 0.0 | 0.00 | 0.21 | 0.00 | 95 | 1022.8 |
| 20260901055537 | 66 | 0 | 0.0 | 0.0 | 0.00 | 0.21 | 0.00 | 95 | 1022.7 |
| 20260901055036 | 66 | 0 | 0.0 | 0.0 | 0.00 | 0.21 | 0.00 | 95 | 1022.8 |
| 20260901054557 | 66 | 0 | 0.0 | 0.0 | 0.00 | 0.21 | 0.00 | 95 | 1022.8 |
| 20260901054034 | 66 | 0 | 0.0 | 0.0 | 0.00 | 0.21 | 0.00 | 95 | 1022.7 |
| 20260901053533 | 66 | 0 | 0.0 | 0.0 | 0.00 | 0.21 | 0.00 | 95 | 1022.8 |
| 20260901053112 | 66 | 0 | 0.0 | 0.0 | 0.00 | 0.21 | 0.00 | 95 | 1022.7 |
| 20260901052533 | 66 | 0 | 0.0 | 0.0 | 0.00 | 0.21 | 0.00 | 95 | 1022.8 |
| 20260901052037 | 66 | 0 | 0.0 | 0.0 | 0.00 | 0.21 | 0.00 | 95 | 1022.8 |
| 20260901051557 | 66 | 0 | 0.0 | 0.0 | 0.00 | 0.21 | 0.00 | 95 | 1022.8 |
| 20260901051033 | 66 | 0 | 0.0 | 0.0 | 0.00 | 0.21 | 0.00 | 95 | 1022.8 |
| 20260901050534 | 66 | 0 | 0.0 | 0.0 | 0.00 | 0.21 | 0.00 | 95 | 1022.9 |
| 20260901050055 | 66 | 0 | 0.0 | 0.0 | 0.00 | 0.21 | 0.00 | 95 | 1022.9 |
| 20260901045534 | 67 | 0 | 0.0 | 0.0 | 0.00 | 0.21 | 0.00 | 95 | 1022.9 |
| 20260901045034 | 66 | 0 | 0.0 | 0.0 | 0.00 | 0.21 | 0.00 | 95 | 1022.9 |
| 20260901044551 | 67 | 0 | 0.0 | 0.0 | 0.00 | 0.21 | 0.00 | 95 | 1022.8 |
| 20260901044034 | 67 | 0 | 0.0 | 0.0 | 0.00 | 0.21 | 0.00 | 95 | 1022.8 |
| 20260901043534 | 67 | 0 | 0.0 | 0.0 | 0.00 | 0.21 | 0.00 | 95 | 1022.7 |
| 20260901043125 | 67 | 0 | 0.0 | 0.0 | 0.00 | 0.21 | 0.00 | 95 | 1022.8 |
| 20260901042533 | 67 | 0 | 0.0 | 0.0 | 0.00 | 0.21 | 0.00 | 95 | 1022.7 |
| 20260901042033 | 67 | 0 | 0.0 | 0.0 | 0.00 | 0.21 | 0.00 | 95 | 1022.8 |
| 20260901041553 | 67 | 0 | 0.0 | 0.0 | 0.00 | 0.21 | 0.00 | 95 | 1022.7 |
| 20260901041034 | 67 | 0 | 0.0 | 0.0 | 0.00 | 0.21 | 0.00 | 95 | 1022.7 |
| 20260901040534 | 67 | 0 | 0.0 | 0.0 | 0.00 | 0.21 | 0.00 | 95 | 1022.7 |
| 20260901040114 | 67 | 0 | 0.0 | 0.0 | 0.00 | 0.21 | 0.00 | 95 | 1022.7 |
| 20260901035535 | 67 | 0 | 0.0 | 0.0 | 0.00 | 0.21 | 0.21 | 95 | 1022.5 |
| 20260901035033 | 67 | 0 | 0.0 | 0.0 | 0.00 | 0.21 | 0.21 | 95 | 1022.6 |
| 20260901034557 | 67 | 0 | 0.0 | 0.0 | 0.00 | 0.21 | 0.21 | 95 | 1022.6 |
| 20260901034033 | 67 | 0 | 0.0 | 0.0 | 0.00 | 0.21 | 0.21 | 95 | 1022.5 |
| 20260901033533 | 67 | 0 | 0.0 | 0.0 | 0.00 | 0.21 | 0.21 | 94 | 1022.6 |
| 20260901033110 | 67 | 0 | 0.0 | 0.0 | 0.00 | 0.21 | 0.21 | 94 | 1022.7 |
| 20260901032534 | 67 | 0 | 0.0 | 0.0 | 0.00 | 0.21 | 0.21 | 95 | 1022.7 |
| 20260901032034 | 67 | 0 | 0.0 | 0.0 | 0.00 | 0.21 | 0.21 | 94 | 1022.7 |
| 20260901031615 | 67 | 0 | 0.0 | 0.0 | 0.00 | 0.21 | 0.21 | 94 | 1022.7 |
| 20260901031035 | 67 | 0 | 0.0 | 0.0 | 0.00 | 0.21 | 0.21 | 94 | 1022.8 |
| 20260901030536 | 67 | 0 | 0.0 | 0.0 | 0.00 | 0.21 | 0.21 | 94 | 1022.8 |
| 20260901030055 | 67 | 0 | 0.0 | 0.0 | 0.00 | 0.21 | 0.21 | 94 | 1022.8 |
| 20260901025534 | 67 | 0 | 0.0 | 0.0 | 0.00 | 0.21 | 0.21 | 94 | 1022.8 |
| 20260901025034 | 67 | 0 | 0.0 | 0.0 | 0.00 | 0.21 | 0.21 | 94 | 1022.8 |
| 20260901024557 | 67 | 0 | 0.0 | 0.0 | 0.00 | 0.21 | 0.21 | 94 | 1022.8 |
| 20260901024032 | 67 | 0 | 0.0 | 0.0 | 0.00 | 0.21 | 0.21 | 94 | 1022.9 |
| 20260901023533 | 67 | 0 | 0.0 | 0.0 | 0.00 | 0.21 | 0.21 | 94 | 1022.8 |
| 20260901023107 | 67 | 0 | 0.0 | 0.0 | 0.00 | 0.21 | 0.21 | 94 | 1023.0 |
| 20260901022533 | 67 | 0 | 0.0 | 0.0 | 0.00 | 0.21 | 0.21 | 94 | 1022.9 |
| 20260901022033 | 68 | 0 | 0.0 | 0.0 | 0.00 | 0.21 | 0.21 | 94 | 1022.9 |
| 20260901021556 | 68 | 0 | 0.0 | 0.0 | 0.00 | 0.21 | 0.21 | 94 | 1022.8 |
| 20260901021034 | 68 | 0 | 0.0 | 0.0 | 0.00 | 0.21 | 0.21 | 94 | 1022.8 |
| 20260901020533 | 68 | 0 | 0.0 | 0.0 | 0.00 | 0.21 | 0.21 | 94 | 1022.6 |
| 20260901015533 | 68 | 0 | 0.0 | 0.0 | 0.00 | 0.21 | 0.21 | 94 | 1022.6 |
| 20260901015034 | 68 | 0 | 0.0 | 0.0 | 0.00 | 0.21 | 0.21 | 93 | 1022.5 |
| 20260901014601 | 68 | 0 | 0.0 | 0.0 | 0.00 | 0.21 | 0.21 | 94 | 1022.3 |
| 20260901014033 | 68 | 0 | 0.0 | 1.0 | 0.00 | 0.21 | 0.21 | 93 | 1022.2 |
| 20260901013533 | 68 | 0 | 0.0 | 1.0 | 0.00 | 0.21 | 0.21 | 93 | 1022.2 |
| 20260901013055 | 68 | 0 | 0.0 | 1.0 | 0.00 | 0.21 | 0.21 | 93 | 1022.2 |
| 20260901012534 | 68 | 0 | 0.0 | 1.0 | 0.00 | 0.21 | 0.21 | 93 | 1022.2 |
| 20260901012033 | 68 | 0 | 0.0 | 1.0 | 0.00 | 0.21 | 0.21 | 93 | 1022.2 |
| 20260901011553 | 68 | 0 | 0.0 | 1.0 | 0.00 | 0.21 | 0.21 | 93 | 1022.2 |
| 20260901011033 | 68 | 0 | 0.0 | 0.0 | 0.00 | 0.21 | 0.21 | 93 | 1022.2 |
| 20260901010533 | 68 | 0 | 0.0 | 0.0 | 0.00 | 0.21 | 0.21 | 92 | 1022.2 |
| 20260901010100 | 68 | 0 | 0.0 | 0.0 | 0.00 | 0.21 | 0.21 | 92 | 1022.2 |
| 20260901005534 | 68 | 0 | 0.0 | 0.0 | 0.00 | 0.21 | 0.21 | 92 | 1022.3 |
| 20260901005036 | 68 | 0 | 0.0 | 0.0 | 0.00 | 0.21 | 0.21 | 92 | 1022.2 |
| 20260901004606 | 68 | 0 | 0.0 | 0.0 | 0.00 | 0.21 | 0.21 | 92 | 1022.3 |
| 20260901004032 | 69 | 0 | 0.0 | 0.0 | 0.00 | 0.21 | 0.21 | 92 | 1022.1 |
| 20260901003533 | 69 | 0 | 0.0 | 0.0 | 0.00 | 0.21 | 0.21 | 92 | 1022.1 |
| 20260901003102 | 69 | 0 | 0.0 | 0.0 | 0.00 | 0.21 | 0.21 | 92 | 1022.0 |
| 20260901002533 | 69 | 0 | 0.0 | 0.0 | 0.00 | 0.21 | 0.21 | 91 | 1022.2 |
| 20260901002033 | 69 | 0 | 0.0 | 1.0 | 0.00 | 0.21 | 0.21 | 91 | 1022.1 |
| 20260901001613 | 69 | 0 | 0.0 | 1.0 | 0.00 | 0.21 | 0.21 | 91 | 1022.1 |
| 20260901001033 | 69 | 0 | 0.0 | 0.0 | 0.00 | 0.21 | 0.21 | 91 | 1022.1 |
| 20260901000533 | 70 | 0 | 0.0 | 0.0 | 0.00 | 0.21 | 0.21 | 91 | 1022.0 |
| 20260901000054 | 70 | 0 | 0.0 | 0.0 | 0.00 | 0.21 | 0.21 | 91 | 1022.0 |
| 20260831235533 | 70 | 0 | 0.0 | 1.0 | 0.00 | 0.21 | 0.21 | 91 | 1022.0 |
| 20260831235033 | 70 | 0 | 0.0 | 2.0 | 0.00 | 0.21 | 0.21 | 90 | 1022.0 |
| 20260831234552 | 70 | 0 | 0.0 | 2.0 | 0.00 | 0.21 | 0.21 | 90 | 1022.1 |
| 20260831234033 | 71 | 11 | 0.0 | 2.0 | 0.00 | 0.21 | 0.21 | 90 | 1022.0 |
| 20260831233535 | 71 | 14 | 0.0 | 1.0 | 0.00 | 0.21 | 0.21 | 90 | 1022.0 |
| 20260831233055 | 71 | 0 | 0.0 | 0.0 | 0.00 | 0.21 | 0.21 | 89 | 1021.9 |
| 20260831232533 | 71 | 0 | 0.0 | 0.0 | 0.00 | 0.21 | 0.21 | 89 | 1021.9 |
| 20260831232034 | 71 | 0 | 0.0 | 0.0 | 0.00 | 0.21 | 0.21 | 89 | 1021.8 |
| 20260831231557 | 71 | 0 | 0.0 | 1.0 | 0.00 | 0.21 | 0.21 | 89 | 1022.0 |
| 20260831231034 | 71 | 0 | 0.0 | 1.0 | 0.00 | 0.21 | 0.21 | 89 | 1022.0 |
| 20260831230534 | 71 | 0 | 0.0 | 1.0 | 0.00 | 0.21 | 0.21 | 89 | 1021.9 |
| 20260831230054 | 71 | 0 | 0.0 | 2.0 | 0.00 | 0.21 | 0.21 | 89 | 1022.0 |
| 20260831225534 | 71 | 0 | 0.0 | 2.0 | 0.00 | 0.35 | 0.21 | 89 | 1022.1 |